[[{"header":{"parameterUnit":"m.s-1","parameterCategory":1,"la1":30.2991,"la2":30.254,"lo1":-89.0895,"lo2":-89.0444,"dy":0.0017,"dx":0.0017,"nx":28,"ny":28,"refTime":"2026-01-11T09:00:00:Z","depth":0,"parameterNumber":2,"parameterNumberName":"U-component_of_WINDS"},"data":[0,0,0,0,0,0,0,0,0,0,0,0,0,0,0,0,0,0,0,0,0,0,0,0,0,0,0,0,0,0,0,0,0,0,0,0,0,0,0,0,0,0,0,0,0,0,0,0,0,0,0,0,0,0,0,0,0,0,-0.664,-0.664,0,-0.6687,-0.6687,-0.6688,-0.6666,-0.6665,-0.6663,-0.6662,-0.6712,-0.6714,-0.6717,0,0,0,0,0,0,0,0,0,0,0,0,0,-0.6531,-0.6533,-0.664,-0.664,-0.6641,-0.6687,-0.6687,-0.6688,-0.6666,-0.6664,-0.6663,-0.6662,-0.6711,-0.6714,-0.6717,0,0,0,0,0,0,0,0,0,0,0,0,0,-0.6578,-0.6534,-0.664,-0.6635,-0.6636,-0.6687,-0.6687,-0.6688,-0.6666,-0.6664,-0.6663,-0.6661,-0.671,-0.6714,-0.6717,-0.6776,0,0,-0.6728,-0.673,0,0,0,0,0,0,0,0,-0.6576,-0.6582,-0.6636,-0.6636,-0.6636,-0.6669,-0.6667,-0.6718,-0.6667,-0.6655,-0.6662,-0.666,-0.6699,-0.6703,-0.6716,-0.6778,-0.678,-0.6729,-0.6731,-0.6732,-0.6733,0,0,0,0,0,0,0,-0.6573,-0.658,-0.6658,-0.6636,-0.6637,-0.6631,-0.6636,-0.6677,-0.6686,-0.6656,-0.6654,-0.666,-0.6699,-0.6713,-0.6717,-0.6781,-0.6729,-0.6732,-0.6734,-0.6735,-0.6892,-0.6893,0,0,0,0,0,0,-0.6569,-0.6578,-0.6657,-0.666,-0.6601,-0.6635,-0.664,-0.666,-0.6686,-0.6688,-0.6661,-0.6659,-0.6707,-0.6713,-0.6719,-0.6788,-0.6732,-0.6736,-0.6738,-0.689,-0.6892,-0.6894,0,0,0,0,0,0,-0.6567,-0.6577,-0.6655,-0.6618,-0.6628,-0.6638,-0.6661,-0.6662,-0.6676,-0.669,-0.6692,-0.6674,-0.6706,-0.6714,-0.6761,-0.679,-0.6737,-0.6741,-0.6887,-0.689,-0.6893,-0.6928,0,0,0,0,0,0,-0.6564,-0.6576,-0.6598,-0.6619,-0.663,-0.6697,-0.6663,-0.6664,-0.6682,-0.6679,-0.6702,-0.6705,-0.6705,-0.6756,-0.6765,-0.6794,-0.6744,-0.6885,-0.6889,-0.6892,-0.6925,-0.6932,-0.6939,0,0,0,0,0,-0.656,-0.6607,-0.66,-0.6609,-0.6658,-0.6699,-0.6705,-0.6704,-0.6684,-0.6707,-0.6716,-0.6704,-0.6785,-0.6761,-0.6771,-0.6801,-0.6883,-0.6888,-0.6892,-0.6922,-0.6931,-0.6938,0,0,0,0,0,0,-0.659,-0.661,-0.6602,-0.6656,-0.6676,-0.6695,-0.6723,-0.6714,-0.674,-0.6736,-0.6735,-0.6741,-0.679,-0.68,-0.6773,-0.6859,-0.6831,-0.6838,-0.685,-0.6859,-0.6866,-0.6862,-0.6747,0,0,0,0,0,-0.6603,-0.6634,-0.6649,-0.6696,-0.6706,-0.6713,-0.6731,-0.6728,-0.6749,-0.6757,-0.677,-0.679,-0.682,-0.684,-0.6868,-0.6926,-0.693,-0.6952,-0.6958,-0.6964,-0.697,-0.7,-0.701,-0.6909,-0.6909,-0.6908,0,0,-0.663,-0.6645,-0.6664,-0.6702,-0.6717,-0.6749,-0.672,-0.6756,-0.6779,-0.6763,-0.6808,-0.6818,-0.6841,-0.6893,-0.6917,-0.6903,-0.6999,-0.697,-0.6974,-0.6977,-0.7006,-0.7015,-0.7024,-0.6912,-0.6911,-0.6911,0,0,-0.6696,-0.671,-0.675,-0.6765,-0.6788,-0.6792,-0.6801,-0.6821,-0.6827,-0.6872,-0.686,-0.6888,-0.694,-0.6956,-0.6972,-0.7042,-0.7031,-0.7051,-0.7087,-0.7117,-0.7125,-0.7132,-0.7157,-0.7165,-0.7057,-0.7057,-0.7057,0,-0.6727,-0.6775,-0.6772,-0.6808,-0.6825,-0.681,-0.6851,-0.6866,-0.6897,-0.6909,-0.6893,-0.6957,-0.6971,-0.7027,-0.7044,-0.7056,-0.7067,-0.7049,-0.7124,-0.7131,-0.7137,-0.7161,-0.717,-0.7059,-0.7059,-0.7059,-0.7058,0,-0.6812,-0.6845,-0.6875,-0.6904,-0.6924,-0.6962,-0.6965,-0.6986,-0.6981,-0.6987,-0.7033,-0.7049,-0.708,-0.7093,-0.709,-0.7148,-0.7139,-0.7124,-0.7096,-0.7149,-0.7171,-0.718,-0.7062,-0.7061,-0.7061,-0.706,0,0,-0.6899,-0.6925,-0.6936,-0.6949,-0.6972,-0.6997,-0.7034,-0.7064,-0.7082,-0.7103,-0.7134,-0.7177,-0.7163,-0.718,-0.7178,-0.7204,-0.7257,-0.7185,-0.7185,-0.7198,-0.7322,-0.7334,-0.7344,-0.725,-0.7252,-0.7253,-0.732,0,-0.6967,-0.7031,-0.7029,-0.7089,-0.712,-0.7105,-0.7137,-0.7155,-0.7161,-0.7187,-0.7193,-0.7224,-0.7203,-0.7213,-0.7238,-0.7246,-0.7282,-0.7241,-0.7279,-0.7281,-0.7274,-0.7356,-0.7369,-0.7431,-0.7329,-0.733,-0.7331,0,-0.7054,-0.7078,-0.7141,-0.7158,-0.717,-0.7199,-0.7226,-0.7251,-0.727,-0.7273,-0.7291,-0.7284,-0.7321,-0.7292,-0.7343,-0.7315,-0.733,-0.7336,-0.7339,-0.7343,-0.731,-0.7362,-0.7451,-0.746,-0.7345,-0.7344,-0.7343,0,-0.7112,-0.7159,-0.7202,-0.7213,-0.7235,-0.7255,-0.7265,-0.7282,-0.73,-0.7323,-0.7334,-0.7361,-0.7376,-0.7397,-0.7398,-0.7377,-0.745,-0.742,-0.7453,-0.7453,-0.7469,-0.7468,-0.7562,-0.7479,-0.7479,-0.7478,-0.7478,0,-0.7187,-0.7226,-0.7228,-0.7255,-0.7298,-0.7295,-0.7338,-0.7345,-0.7361,-0.7388,-0.7378,-0.7404,-0.7403,-0.743,-0.7431,-0.7473,-0.748,-0.7482,-0.7482,-0.7484,-0.7483,-0.7494,-0.749,-0.7481,-0.748,-0.748,-0.7479,0,-0.7259,-0.7262,-0.7308,-0.7324,-0.7328,-0.736,-0.7373,-0.7398,-0.7402,-0.7438,-0.7446,-0.7453,-0.7483,-0.7486,-0.7522,-0.7522,-0.7573,-0.7568,-0.7566,-0.7566,-0.7598,-0.7595,-0.7702,-0.7716,-0.7623,-0.7624,-0.7625,0,-0.7307,-0.7337,-0.7355,-0.7373,-0.7384,-0.7412,-0.743,-0.7428,-0.7446,-0.7469,-0.7492,-0.7521,-0.7545,-0.7595,-0.7603,-0.763,-0.7626,-0.7661,-0.763,-0.763,-0.7626,-0.7624,-0.7627,-0.7668,-0.7669,-0.7669,-0.767,0,-0.7393,-0.7392,-0.7418,-0.7443,-0.7464,-0.7484,-0.7503,-0.7518,-0.7518,-0.7539,-0.757,-0.7589,-0.7624,-0.7654,-0.768,-0.769,-0.768,-0.768,-0.7688,-0.769,-0.7688,-0.769,-0.7583,-0.7677,-0.7677,-0.7676,-0.7676,-0.7675,-0.7454,-0.7479,-0.7496,-0.7524,-0.7538,-0.7555,-0.758,-0.7586,-0.7612,-0.7641,-0.7637,-0.7672,-0.7689,-0.7723,-0.7735,-0.7761,-0.7749,-0.7762,-0.7766,-0.7769,-0.7772,-0.7684,-0.7766,-0.7766,-0.7766,-0.7766,-0.7765,0,-0.7539,-0.7548,-0.7574,-0.7601,-0.7623,-0.761,-0.763,-0.7649,-0.7679,-0.7696,-0.7719,-0.7754,-0.7782,-0.7792,-0.7819,-0.7838,-0.7834,-0.7845,-0.7844,-0.7846,-0.7781,-0.7771,-0.7848,-0.7848,-0.7848,-0.7848,-0.7848,-0.7848,-0.7586,-0.7627,-0.7628,-0.7676,-0.7686,-0.7719,-0.7731,-0.7747,-0.776,-0.7799,-0.7822,-0.7828,-0.7842,-0.7869,-0.7894,-0.7896,-0.7907,-0.792,-0.792,-0.7859,-0.7851,-0.7843,-0.7833,-0.7922,-0.7922,-0.7983,-0.7983,-0.7984]},{"header":{"parameterUnit":"m.s-1","parameterCategory":1,"la1":30.2991,"la2":30.254,"lo1":-89.0895,"lo2":-89.0444,"dy":0.0017,"dx":0.0017,"nx":28,"ny":28,"refTime":"2026-01-11T09:00:00:Z","depth":0,"parameterNumber":3,"parameterNumberName":"V-component_of_WINDS"},"data":[0,0,0,0,0,0,0,0,0,0,0,0,0,0,0,0,0,0,0,0,0,0,0,0,0,0,0,0,0,0,0,0,0,0,0,0,0,0,0,0,0,0,0,0,0,0,0,0,0,0,0,0,0,0,0,0,0,0,-4.2848,-4.2849,0,-4.2958,-4.296,-4.2961,-4.2922,-4.2919,-4.2917,-4.2915,-4.3024,-4.3029,-4.3035,0,0,0,0,0,0,0,0,0,0,0,0,0,-4.26,-4.2605,-4.2848,-4.2849,-4.2851,-4.2958,-4.296,-4.2961,-4.2922,-4.2919,-4.2916,-4.2914,-4.3023,-4.3029,-4.3035,0,0,0,0,0,0,0,0,0,0,0,0,0,-4.2709,-4.2606,-4.2848,-4.2844,-4.2845,-4.2958,-4.296,-4.2962,-4.2923,-4.2919,-4.2916,-4.2912,-4.3021,-4.3028,-4.3036,-4.3157,0,0,-4.306,-4.3063,0,0,0,0,0,0,0,0,-4.2703,-4.2718,-4.2844,-4.2845,-4.2846,-4.2923,-4.2912,-4.3027,-4.2924,-4.2893,-4.2915,-4.291,-4.2993,-4.3003,-4.3032,-4.3163,-4.3167,-4.306,-4.3065,-4.3069,-4.3071,0,0,0,0,0,0,0,-4.2695,-4.2713,-4.2892,-4.2845,-4.2847,-4.2836,-4.2848,-4.2934,-4.2962,-4.2896,-4.2893,-4.2907,-4.2993,-4.3024,-4.3034,-4.3169,-4.306,-4.3067,-4.3072,-4.3075,-4.3403,-4.3407,0,0,0,0,0,0,-4.2687,-4.2707,-4.2888,-4.2895,-4.2764,-4.2844,-4.2856,-4.2902,-4.2961,-4.2967,-4.291,-4.2905,-4.3013,-4.3025,-4.3038,-4.3183,-4.3068,-4.3076,-4.308,-4.3399,-4.3404,-4.3408,0,0,0,0,0,0,-4.2682,-4.2704,-4.2884,-4.28,-4.2822,-4.2852,-4.2903,-4.2906,-4.2937,-4.2972,-4.2977,-4.2937,-4.301,-4.3027,-4.3128,-4.3186,-4.3079,-4.3086,-4.3394,-4.34,-4.3406,-4.3474,0,0,0,0,0,0,-4.2675,-4.2702,-4.275,-4.2802,-4.2827,-4.2973,-4.2907,-4.2911,-4.2951,-4.2945,-4.2999,-4.3004,-4.3009,-4.3116,-4.3136,-4.3195,-4.3092,-4.3389,-4.3397,-4.3404,-4.3467,-4.3482,-4.3495,0,0,0,0,0,-4.2667,-4.2764,-4.2752,-4.2774,-4.2887,-4.2977,-4.2991,-4.2996,-4.2956,-4.3003,-4.3025,-4.3002,-4.3177,-4.3127,-4.3148,-4.3211,-4.3385,-4.3395,-4.3404,-4.3461,-4.3479,-4.3494,0,0,0,0,0,0,-4.2718,-4.2771,-4.2758,-4.2876,-4.2922,-4.297,-4.303,-4.3015,-4.3073,-4.3065,-4.3067,-4.3079,-4.3183,-4.3207,-4.3151,-4.333,-4.3275,-4.3289,-4.3311,-4.3329,-4.3342,-4.3334,-4.3099,0,0,0,0,0,-4.2743,-4.2812,-4.2855,-4.2954,-4.2978,-4.3,-4.3039,-4.3039,-4.3086,-4.3105,-4.3135,-4.3181,-4.3246,-4.3289,-4.3351,-4.347,-4.348,-4.3524,-4.3537,-4.3549,-4.356,-4.3624,-4.3643,-4.3438,-4.3438,-4.3438,0,0,-4.2795,-4.2833,-4.2876,-4.2965,-4.3001,-4.3072,-4.3017,-4.3094,-4.3146,-4.3117,-4.3214,-4.3237,-4.3289,-4.3399,-4.3449,-4.3422,-4.3619,-4.356,-4.3569,-4.3574,-4.3635,-4.3654,-4.3671,-4.3444,-4.3443,-4.3442,0,0,-4.2926,-4.2962,-4.3049,-4.3086,-4.314,-4.3154,-4.3175,-4.3225,-4.324,-4.3338,-4.3317,-4.3378,-4.3491,-4.3527,-4.3561,-4.3705,-4.3685,-4.3725,-4.3797,-4.3859,-4.3875,-4.3889,-4.3939,-4.3957,-4.3737,-4.3737,-4.3737,0,-4.2983,-4.309,-4.3094,-4.3173,-4.3212,-4.319,-4.3277,-4.3312,-4.3384,-4.3411,-4.338,-4.352,-4.3553,-4.3671,-4.3706,-4.3735,-4.3757,-4.3719,-4.3873,-4.3887,-4.39,-4.3948,-4.3967,-4.3741,-4.3741,-4.374,-4.374,0,-4.3157,-4.3231,-4.3294,-4.3365,-4.3411,-4.3494,-4.3509,-4.3555,-4.3551,-4.3567,-4.3666,-4.3705,-4.3774,-4.3802,-4.3798,-4.3919,-4.3901,-4.3872,-4.3815,-4.3924,-4.3969,-4.3987,-4.3748,-4.3746,-4.3745,-4.3744,0,0,-4.3323,-4.3395,-4.3418,-4.3449,-4.3508,-4.3565,-4.3645,-4.3714,-4.3752,-4.3803,-4.3869,-4.3964,-4.3938,-4.3976,-4.3976,-4.403,-4.414,-4.3994,-4.3995,-4.4018,-4.4274,-4.4294,-4.4316,-4.4128,-4.4131,-4.4134,-4.4269,0,-4.3457,-4.36,-4.3606,-4.3736,-4.3803,-4.3783,-4.3853,-4.3896,-4.3913,-4.3972,-4.3991,-4.4058,-4.4018,-4.4041,-4.4094,-4.4115,-4.4191,-4.4106,-4.4188,-4.419,-4.4174,-4.4339,-4.4362,-4.4487,-4.4287,-4.429,-4.4292,0,-4.3634,-4.369,-4.3826,-4.3874,-4.3903,-4.3966,-4.4028,-4.4085,-4.4133,-4.4142,-4.4184,-4.4176,-4.4257,-4.4199,-4.4309,-4.4251,-4.4285,-4.43,-4.4305,-4.4312,-4.4247,-4.4349,-4.4528,-4.4546,-4.432,-4.4317,-4.4315,0,-4.3739,-4.3849,-4.3944,-4.3972,-4.4031,-4.4075,-4.4102,-4.4146,-4.4186,-4.424,-4.4266,-4.4328,-4.4362,-4.441,-4.4419,-4.4376,-4.4529,-4.4472,-4.4537,-4.4537,-4.4569,-4.4566,-4.4754,-4.4593,-4.4593,-4.4592,-4.4592,0,-4.3888,-4.3971,-4.3992,-4.4051,-4.4144,-4.4149,-4.424,-4.4263,-4.4303,-4.4364,-4.435,-4.4408,-4.4416,-4.4476,-4.4483,-4.4572,-4.4588,-4.4596,-4.4596,-4.4597,-4.4595,-4.4618,-4.4609,-4.4597,-4.4596,-4.4595,-4.4595,0,-4.402,-4.4038,-4.414,-4.4188,-4.4202,-4.4268,-4.4308,-4.4363,-4.4379,-4.4457,-4.4476,-4.4501,-4.457,-4.4583,-4.4665,-4.4669,-4.4775,-4.4768,-4.476,-4.4758,-4.4822,-4.4815,-4.5029,-4.5057,-4.4879,-4.4881,-4.4882,0,-4.4114,-4.4178,-4.4232,-4.4273,-4.4302,-4.4367,-4.4408,-4.4416,-4.4459,-4.4518,-4.4565,-4.4633,-4.4688,-4.4799,-4.4823,-4.4885,-4.4878,-4.4949,-4.4887,-4.4885,-4.4877,-4.4873,-4.4879,-4.496,-4.4962,-4.4964,-4.4965,0,-4.4276,-4.4282,-4.4342,-4.4406,-4.4455,-4.4505,-4.4552,-4.4586,-4.46,-4.4649,-4.472,-4.4762,-4.4845,-4.4912,-4.4974,-4.4999,-4.4984,-4.4985,-4.5002,-4.5002,-4.4994,-4.4998,-4.479,-4.4979,-4.4978,-4.4977,-4.4976,-4.4975,-4.4391,-4.4447,-4.4494,-4.4561,-4.4597,-4.4642,-4.4696,-4.4719,-4.4778,-4.4847,-4.4848,-4.4925,-4.497,-4.5051,-4.5081,-4.514,-4.5118,-4.5144,-4.515,-4.5157,-4.5162,-4.4986,-4.5152,-4.5151,-4.5151,-4.5151,-4.515,0,-4.4552,-4.4581,-4.4643,-4.471,-4.4763,-4.4745,-4.4796,-4.4841,-4.4909,-4.4953,-4.5007,-4.5088,-4.5152,-4.5182,-4.5245,-4.5287,-4.5282,-4.5303,-4.53,-4.5305,-4.5179,-4.5157,-4.5307,-4.5307,-4.5307,-4.5307,-4.5306,-4.5306,-4.4642,-4.4734,-4.4745,-4.4855,-4.4883,-4.4959,-4.499,-4.503,-4.5065,-4.5156,-4.521,-4.5229,-4.5267,-4.5333,-4.5391,-4.5398,-4.5421,-4.5446,-4.5449,-4.533,-4.5314,-4.5299,-4.5278,-4.5451,-4.5451,-4.557,-4.5571,-4.5572]}]]